Alicante, Spain

9:47 AM CEST on May 27, 2017 (GMT +0200)
Alicante

Weather History for LEAL - March, 2013

Change the Weather History Date:

Saturday, March 9, 2013

  Actual Average Record
Temperature  
Mean Temperature 62 °F -  
Max Temperature 73 °F 65 °F 83 °F (2017)
Min Temperature 52 °F 47 °F 35 °F (2005)
Degree Days  
Heating Degree Days 2    
Growing Degree Days 12 (Base 50)    
Moisture  
Dew Point 51 °F    
Average Humidity 73    
Maximum Humidity 100    
Minimum Humidity 21    
Precipitation  
Precipitation 0.00 in - - ()
Sea Level Pressure  
Sea Level Pressure 29.77 in    
Wind  
Wind Speed 5 mph ()    
Max Wind Speed 21 mph    
Max Gust Speed 30 mph    
Visibility 8.1 miles    
Events Rain    
Averages and records for this station are not official NWS values.
T = Trace of Precipitation, MM = Missing Value Source: Averaged Metar Reports

Daily Weather History Graph

Daily Weather History Graph

Search for Another Location

Airport or City:

Trip Planner

Search our weather history database for the weather conditions in past years. The results will help you decide how hot, cold, wet, or windy it might be!

Date:

Astronomy

Mar. 09, 2013 Rise Set
Actual Time 7:22 AM CET 7:03 PM CET
Civil Twilight 6:56 AM CET 7:29 PM CET
Nautical Twilight 6:25 AM CET 8:00 PM CET
Astronomical Twilight 5:54 AM CET 8:31 PM CET
Moon 5:35 AM CET (3/9) 4:50 PM CET (3/9)
Length of Visible Light 12h 33m
Length of Day
11h 41m
Waning Crescent, 7% of the Moon is Illuminated
Mar 9
Waning Crescent
Mar 11
New
Mar 19
First Quarter
Mar 27
Full
Apr 3
Last Quarter

Hourly Weather History & Observations

Time (CET) Temp. Dew Point Humidity Pressure Visibility Wind Dir Wind Speed Gust Speed Precip Events Conditions
12:00 AM 55.4 °F 53.6 °F 94% 29.77 in - Variable 1.2 mph - N/A   Clear
12:30 AM 53.6 °F 53.6 °F 100% 29.77 in - Calm Calm - N/A   Clear
1:00 AM 53 °F 49 °F 84% 29.79 in 9 mi Calm Calm - -   Mostly Cloudy
1:00 AM 53.6 °F 51.8 °F 94% 29.77 in - Calm Calm - N/A   Clear
1:30 AM 55.4 °F 53.6 °F 94% 29.77 in - Variable 2.3 mph - N/A   Clear
2:00 AM 55.4 °F 53.6 °F 94% 29.77 in - Variable 2.3 mph - N/A   Clear
2:30 AM 55.4 °F 53.6 °F 94% 29.77 in - Variable 1.2 mph - N/A   Clear
3:00 AM 55.4 °F 53.6 °F 94% 29.77 in - Variable 1.2 mph - N/A   Clear
3:30 AM 53.6 °F 53.6 °F 100% 29.77 in - Variable 1.2 mph - N/A   Clear
4:00 AM 53.6 °F 51.8 °F 94% 29.77 in - Variable 1.2 mph - N/A   Clear
4:30 AM 53.6 °F 51.8 °F 94% 29.77 in - West 3.5 mph - N/A   Clear
5:00 AM 53.6 °F 51.8 °F 94% 29.77 in - Variable 2.3 mph - N/A   Clear
5:30 AM 53.6 °F 51.8 °F 94% 29.77 in - SW 3.5 mph - N/A   Clear
6:00 AM 55.4 °F 51.8 °F 88% 29.77 in - SW 5.8 mph - N/A   Clear
6:30 AM 55.4 °F 50.0 °F 82% 29.77 in - Variable 1.2 mph - N/A   Clear
7:00 AM 53 °F 46 °F 71% 29.78 in 12 mi SW 3.5 mph - -   Partly Cloudy
7:00 AM 53.6 °F 50.0 °F 88% 29.77 in - Variable 2.3 mph - N/A   Clear
7:30 AM 55.4 °F 48.2 °F 77% 29.77 in - WSW 4.6 mph - N/A   Clear
8:00 AM 53.6 °F 50.0 °F 88% 29.80 in - SW 4.6 mph - N/A   Clear
8:30 AM 57.2 °F 50.0 °F 77% 29.80 in - SW 4.6 mph - N/A   Clear
9:00 AM 59.0 °F 51.8 °F 77% 29.80 in - WNW 3.5 mph - N/A   Clear
9:30 AM 62.6 °F 50.0 °F 63% 29.80 in - WNW 4.6 mph - N/A   Clear
10:00 AM 66.2 °F 50.0 °F 56% 29.83 in - WNW 15.0 mph - N/A   Clear
10:30 AM 66.2 °F 51.8 °F 60% 29.83 in - WNW 11.5 mph - N/A   Clear
11:00 AM 68.0 °F 50.0 °F 52% 29.83 in - WNW 10.4 mph - N/A   Clear
11:30 AM 68.0 °F 51.8 °F 56% 29.83 in - SW 4.6 mph - N/A   Clear
12:00 PM 69.8 °F 53.6 °F 56% 29.80 in - South 8.1 mph - N/A   Clear
12:30 PM 71.6 °F 41.0 °F 33% 29.80 in - WSW 18.4 mph 29.9 mph N/A   Clear
1:00 PM 71 °F 39 °F 21% 29.79 in 19 mi West 20.7 mph - -   Scattered Clouds
1:00 PM 71.6 °F 42.8 °F 35% 29.77 in 6.2 mi West 20.7 mph - N/A   Partly Cloudy
1:30 PM 71.6 °F 41.0 °F 33% 29.77 in 6.2 mi WSW 17.3 mph - N/A   Partly Cloudy
2:00 PM 73.4 °F 42.8 °F 33% 29.77 in 6.2 mi SW 15.0 mph - N/A   Scattered Clouds
2:30 PM 73.4 °F 42.8 °F 33% 29.74 in 6.2 mi SSW 12.7 mph - N/A   Scattered Clouds
3:00 PM 69.8 °F 53.6 °F 56% 29.74 in 6.2 mi South 15.0 mph - N/A   Scattered Clouds
3:30 PM 68.0 °F 55.4 °F 64% 29.74 in 6.2 mi South 15.0 mph - N/A   Scattered Clouds
4:00 PM 69.8 °F 55.4 °F 60% 29.74 in 6.2 mi South 12.7 mph - N/A   Scattered Clouds
4:30 PM 69.8 °F 53.6 °F 56% 29.74 in 6.2 mi South 15.0 mph - N/A   Scattered Clouds
5:00 PM 69.8 °F 51.8 °F 53% 29.74 in 6.2 mi South 11.5 mph - N/A   Partly Cloudy
5:30 PM 66.2 °F 55.4 °F 68% 29.74 in 6.2 mi South 10.4 mph - N/A   Partly Cloudy
6:00 PM 64.4 °F 57.2 °F 77% 29.74 in 6.2 mi South 6.9 mph - N/A Rain Light Rain
6:30 PM 62.6 °F 55.4 °F 77% 29.71 in 6.2 mi South 8.1 mph - N/A   Partly Cloudy
7:00 PM 60 °F 53 °F 70% 29.74 in 19 mi South 4.6 mph - -   Scattered Clouds
7:00 PM 60.8 °F 55.4 °F 82% 29.74 in 6.2 mi South 3.5 mph - N/A   Partly Cloudy
7:30 PM 60.8 °F 55.4 °F 82% 29.74 in 6.2 mi Calm Calm - N/A   Partly Cloudy
8:00 PM 59.0 °F 55.4 °F 88% 29.74 in - Variable 1.2 mph - N/A   Clear
8:30 PM 59.0 °F 55.4 °F 88% 29.74 in - Variable 2.3 mph - N/A   Clear
9:00 PM 57.2 °F 53.6 °F 88% 29.74 in - SSW 4.6 mph - N/A   Clear
9:30 PM 59.0 °F 53.6 °F 82% 29.74 in - Calm Calm - N/A   Clear
10:00 PM 57.2 °F 51.8 °F 82% 29.74 in - West 3.5 mph - N/A   Clear
10:30 PM 57.2 °F 50.0 °F 77% 29.74 in - West 4.6 mph - N/A   Clear
11:00 PM 59.0 °F 50.0 °F 72% 29.74 in - WSW 5.8 mph - N/A   Clear
11:30 PM 59.0 °F 50.0 °F 72% 29.74 in - WSW 8.1 mph - N/A   Clear